sat.trackr.live / text

‹ back to catalog

SMAP

NORAD 40376 · 2015-003A

PAYLOAD ACTIVE UNKNOWN

§ Identity

Operator
Country
US
Launch date
2015-01-31
Launch site
AFWTR
Launch vehicle
Mass (kg)
RCS (m²)
4.28

Purposes: earth_obs

External: N2YO · Heavens-Above · Gunter

§ Orbital elements

Epoch: 2026-09-20T04:35:16.890144Z

Period
98.40 min
Inclination
98.1318°
Eccentricity
0.0001456
Mean motion
14.63373466 rev/d
Perigee alt
681.3 km
Apogee alt
683.3 km
Semi-major
7,060.4 km
B*
5.3547e-5
RAAN
268.9569°
Arg perigee
90.5984°
Mean anomaly
269.5385°
Rev number
62,151

§ Raw data

SMAP1 40376U 15003A   26263.19116771  .00000230  00000+0  53547-4 0  99932 40376  98.1318 268.9569 0001456  90.5984 269.5385 14.63373466621514

JSON: /api/v1/satellites/40376 · /tle

For live sub-satellite position, see the globe view (requires WebGL).

§ Visibility from observer

Set your observer location to see the next 7 days of passes ≥ 10°. The values pass through the URL so the page stays shareable.

No JS? Fill the form by hand. The geolocation button needs JavaScript.

§ Radio — SatNOGS DB

ModeDescriptionDownlinkUplink
FM Mode X 8.180 GHz
DBPSK S-Band 9k6 DBPSK Telemetry Experimental 2.274 GHz
DBPSK S-Band DBPSK Telemetry 2.274 GHz

3 transmitters · refreshed weekly from db.satnogs.org